Probability
45 45 65 65 65 61 68 71 71 74 71 68 74 71 68 74 71 61 58 71 74 74 68 58 65 65 58 71 71 58 61 71 77 74 65 61 65 61 48 55 45 26 52
45 45 68 61 68 68 68 71 71 65 68 71 65 58 68 68 65 61 61 68 68 71 58 61 58 55 58 65 61 58 48 55 61 61 58 55 55 52 48 48 52 35 55
39 35 52 71 77 74 71 61 61 65 65 74 58 61 58 61 58 55 48 52 61 58 58 55 55 52 55 52 52 48 45 45 55 55 61 48 45 52 55 55 58 48 52
26 32 35 71 77 77 68 58 61 55 58 61 61 61 61 65 58 58 48 48 45 55 55 52 48 42 48 48 48 48 48 48 42 45 42 29 32 52 52 48 52 48 45
35 35 45 71 74 77 71 61 55 52 52 52 55 58 58 58 55 58 61 55 45 58 52 55 52 45 45 45 45 45 48 45 45 45 32 32 29 45 45 48 52 45 52
29 26 45 71 68 61 58 52 52 52 52 52 48 48 48 48 52 52 55 55 48 55 48 52 52 42 39 35 39 39 42 42 35 16 19 23 29 52 42 45 45 42 45
29 32 35 65 58 52 55 48 42 52 48 48 55 55 45 42 48 48 52 48 48 52 48 48 48 42 39 39 35 32 32 35 26 19 23 29 35 58 48 52 45 42 48
32 35 35 55 48 55 55 55 45 48 52 45 42 42 45 45 48 45 42 45 45 39 39 45 45 42 45 45 39 39 39 35 26 10 23 45 65 58 61 52 52 39 35
32 39 39 42 48 55 58 45 39 42 42 39 32 39 45 48 42 39 35 35 35 29 35 39 39 39 35 35 35 35 42 42 32 26 13 29 61 61 61 55 48 42 42
26 29 42 42 42 42 45 45 39 42 35 35 35 39 42 45 42 42 35 35 26 26 29 32 32 35 39 42 45 42 42 39 19 13 19 26 65 68 61 58 55 52 39
19 23 26 29 35 35 39 48 45 45 45 42 45 42 39 42 35 42 32 45 32 32 32 32 42 45 42 52 55 55 42 32 19 19 26 42 65 71 71 61 55 55 58
19 23 23 23 39 35 35 45 45 45 52 55 58 52 48 55 52 42 42 45 45 39 35 42 48 52 48 35 45 58 29 39 29 19 32 55 61 61 65 61 55 52 58
23 23 19 29 39 42 42 42 42 52 58 45 55 61 61 55 48 45 39 39 45 42 45 48 39 29 32 48 48 45 45 26 23 23 32 61 58 65 58 61 55 55 58
29 35 29 35 58 61 58 45 52 48 58 48 65 68 61 58 58 48 48 52 48 39 45 42 42 39 35 39 48 45 39 29 26 32 39 58 58 58 58 55 58 65 61
48 42 45 58 68 61 81 68 55 55 48 45 61 61 55 55 55 52 52 52 48 48 48 45 45 45 45 32 32 39 42 45 39 26 39 55 55 55 52 48 55 61 61
48 52 52 55 68 74 71 71 65 52 65 52 55 48 55 52 52 48 58 55 52 52 48 55 45 42 45 39 32 35 39 39 45 48 35 48 61 61 58 52 52 52 55
45 48 55 48 71 71 65 58 39 42 35 48 45 48 48 48 48 55 55 52 52 52 55 55 48 48 45 35 42 39 42 42 29 42 42 39 45 58 58 55 55 55 58
48 58 61 42 61 68 74 71 45 35 45 45 48 45 42 45 45 48 52 48 55 52 55 52 52 42 52 39 35 39 39 45 52 52 45 52 48 32 48 55 55 61 58
55 61 65 68 65 68 61 71 61 48 48 48 48 39 39 35 39 42 42 45 48 52 55 39 45 48 45 45 39 42 42 42 45 48 52 45 45 45 48 45 61 55 48
52 68 71 68 74 74 68 68 65 55 45 45 45 48 42 35 39 39 39 42 45 52 48 45 48 48 52 55 23 26 42 42 52 55 48 42 42 45 39 35 35 39 48
55 65 71 77 77 81 74 58 58 52 48 48 39 39 45 42 42 39 45 42 48 45 52 48 48 45 45 42 45 35 29 42 29 52 48 45 42 39 39 42 42 39 29
55 65 71 74 74 74 77 68 68 58 52 42 42 45 42 45 42 35 42 42 42 48 42 45 45 42 35 35 42 42 35 42 42 13 42 39 42 42 39 29 32 29 26
42 58 52 74 74 74 74 68 61 65 52 48 48 52 45 45 45 42 42 45 45 42 39 42 45 35 35 39 35 32 32 23 29 29 23 23 32 35 32 29 32 29 23
42 48 65 71 77 71 71 65 58 55 42 45 55 55 48 52 52 48 45 45 42 42 48 42 42 45 35 32 32 26 32 26 26 23 16 19 23 29 32 29 29 29 29
45 48 58 77 84 81 71 65 68 52 45 48 52 48 45 48 48 42 48 45 48 45 45 48 48 39 32 26 26 29 26 29 23 23 16 16 19 16 26 32 32 29 29
48 48 55 71 77 74 65 65 68 61 58 55 52 48 52 48 45 42 42 42 45 48 45 48 42 35 35 35 29 29 32 29 23 23 19 19 16 19 23 19 32 29 32
Height
5876 5875 5875 5875 5875 5875 5875 5875 5874 5874 5875 5875 5875 5876 5877 5877 5878 5879 5880 5880 5881 5881 5882 5882 5883 5884 5885 5886 5887 5888 5889 5889 5890 5891 5891 5892 5893 5894 5894 5895 5895 5896 5896
5877 5876 5876 5876 5876 5876 5876 5876 5876 5876 5876 5876 5877 5877 5877 5878 5879 5879 5880 5881 5881 5882 5882 5883 5883 5884 5885 5886 5887 5887 5888 5889 5890 5890 5891 5892 5893 5893 5894 5894 5895 5896 5896
5879 5878 5878 5878 5878 5877 5877 5877 5877 5877 5877 5877 5877 5878 5878 5879 5879 5880 5880 5881 5881 5882 5882 5883 5883 5884 5885 5886 5887 5887 5888 5888 5889 5890 5891 5892 5892 5893 5894 5894 5895 5895 5896
5880 5880 5879 5879 5879 5878 5878 5878 5878 5877 5877 5878 5878 5878 5879 5879 5879 5880 5880 5881 5881 5881 5882 5883 5883 5884 5885 5885 5886 5887 5887 5888 5889 5889 5890 5891 5892 5892 5893 5894 5894 5895 5895
5882 5881 5880 5880 5879 5879 5879 5878 5878 5878 5878 5878 5878 5879 5879 5879 5879 5880 5880 5881 5881 5881 5882 5882 5883 5884 5884 5885 5886 5886 5887 5888 5888 5889 5889 5890 5891 5892 5893 5894 5894 5895 5895
5883 5882 5881 5881 5880 5880 5880 5879 5879 5879 5879 5879 5879 5879 5879 5879 5879 5880 5880 5880 5881 5881 5881 5882 5882 5883 5884 5884 5885 5885 5886 5887 5888 5888 5889 5890 5891 5892 5892 5893 5893 5894 5895
5884 5883 5882 5882 5881 5881 5880 5880 5880 5879 5879 5879 5879 5879 5879 5879 5879 5879 5879 5879 5880 5880 5881 5881 5882 5882 5883 5883 5884 5884 5885 5886 5887 5888 5888 5889 5890 5891 5892 5892 5893 5893 5894
5884 5883 5883 5883 5882 5882 5881 5881 5880 5880 5880 5879 5879 5879 5879 5879 5879 5878 5879 5879 5879 5880 5880 5880 5881 5881 5882 5882 5883 5883 5884 5885 5886 5887 5888 5889 5890 5890 5891 5891 5892 5893 5893
5885 5885 5884 5884 5883 5882 5882 5881 5881 5880 5880 5880 5879 5879 5878 5878 5878 5878 5878 5878 5879 5879 5879 5879 5880 5880 5880 5881 5881 5882 5883 5884 5885 5886 5887 5888 5889 5889 5890 5890 5891 5892 5892
5887 5886 5886 5885 5884 5883 5882 5882 5881 5880 5880 5880 5879 5878 5878 5878 5877 5877 5877 5877 5878 5878 5878 5878 5879 5879 5879 5879 5880 5881 5882 5883 5884 5885 5886 5887 5888 5888 5889 5889 5890 5891 5891
5888 5887 5886 5885 5884 5883 5883 5882 5882 5881 5880 5879 5878 5878 5878 5877 5877 5877 5876 5876 5876 5876 5877 5877 5878 5879 5879 5879 5879 5880 5881 5882 5882 5883 5884 5885 5886 5887 5888 5888 5889 5889 5890
5888 5888 5887 5886 5885 5884 5883 5882 5882 5881 5880 5878 5878 5877 5877 5876 5876 5876 5875 5875 5875 5875 5875 5876 5877 5877 5878 5878 5878 5879 5880 5881 5882 5882 5883 5884 5885 5885 5886 5887 5888 5888 5889
5890 5889 5888 5887 5886 5884 5883 5882 5881 5880 5879 5878 5877 5876 5876 5876 5876 5875 5875 5874 5874 5874 5874 5874 5875 5876 5876 5876 5877 5878 5879 5880 5881 5881 5882 5883 5883 5884 5885 5885 5886 5887 5888
5891 5890 5889 5887 5886 5885 5883 5882 5881 5880 5879 5878 5877 5876 5875 5875 5875 5874 5874 5874 5873 5873 5873 5874 5874 5874 5875 5875 5875 5877 5877 5878 5879 5880 5880 5881 5882 5882 5883 5884 5885 5885 5886
5891 5890 5889 5888 5886 5885 5883 5882 5881 5879 5878 5877 5876 5875 5875 5875 5874 5874 5873 5873 5873 5872 5872 5872 5872 5872 5873 5873 5874 5874 5875 5876 5877 5878 5878 5879 5880 5881 5881 5882 5883 5884 5884
5892 5891 5889 5888 5886 5885 5883 5881 5880 5879 5878 5877 5876 5875 5874 5874 5873 5873 5872 5872 5871 5871 5871 5871 5871 5871 5871 5871 5872 5872 5873 5874 5875 5876 5876 5877 5878 5879 5880 5880 5881 5882 5882
5892 5891 5889 5888 5886 5884 5883 5881 5880 5879 5877 5876 5875 5874 5874 5873 5872 5872 5871 5870 5870 5870 5869 5869 5869 5869 5869 5869 5869 5870 5871 5871 5872 5873 5874 5875 5876 5877 5877 5878 5879 5879 5880
5891 5890 5889 5887 5886 5884 5882 5881 5879 5878 5877 5875 5874 5873 5873 5871 5871 5870 5869 5869 5868 5868 5867 5867 5867 5866 5866 5867 5867 5868 5868 5869 5870 5871 5871 5872 5873 5874 5875 5875 5876 5877 5877
5891 5890 5889 5887 5885 5884 5882 5880 5879 5877 5876 5875 5873 5872 5871 5870 5869 5868 5868 5867 5866 5866 5865 5865 5865 5865 5864 5864 5865 5865 5866 5867 5867 5868 5868 5869 5870 5871 5872 5872 5873 5874 5874
5891 5889 5888 5886 5885 5883 5881 5880 5878 5876 5875 5874 5872 5871 5869 5868 5867 5866 5866 5865 5865 5864 5863 5863 5863 5862 5862 5862 5862 5863 5863 5864 5864 5865 5865 5866 5867 5868 5868 5869 5870 5870 5871
5890 5889 5887 5886 5884 5882 5881 5879 5877 5876 5874 5872 5871 5869 5868 5866 5865 5865 5864 5863 5863 5862 5861 5861 5860 5860 5859 5859 5859 5860 5860 5861 5861 5861 5862 5862 5863 5864 5864 5865 5866 5866 5867
5890 5888 5886 5885 5883 5881 5880 5878 5876 5874 5873 5871 5869 5867 5866 5865 5864 5863 5862 5861 5860 5860 5859 5858 5857 5857 5856 5856 5856 5856 5857 5858 5857 5858 5858 5858 5859 5859 5860 5860 5861 5862 5863
5889 5887 5886 5884 5882 5880 5879 5877 5875 5873 5871 5870 5868 5866 5865 5864 5862 5861 5860 5859 5858 5857 5856 5855 5854 5854 5853 5853 5852 5853 5853 5853 5853 5854 5854 5854 5854 5855 5856 5856 5857 5858 5858
5888 5886 5885 5883 5881 5879 5877 5876 5874 5872 5870 5868 5867 5865 5863 5862 5861 5859 5858 5857 5856 5855 5854 5853 5852 5851 5850 5849 5848 5848 5849 5849 5849 5850 5850 5850 5851 5851 5851 5852 5852 5853 5853
5887 5885 5884 5882 5880 5878 5876 5874 5873 5871 5869 5867 5865 5863 5862 5860 5859 5857 5855 5854 5853 5852 5851 5850 5849 5848 5846 5845 5844 5844 5844 5844 5845 5845 5846 5846 5846 5846 5846 5847 5848 5848 5849
5885 5884 5882 5880 5879 5877 5875 5873 5871 5869 5867 5865 5863 5862 5860 5858 5856 5855 5853 5852 5850 5849 5848 5847 5846 5844 5843 5842 5841 5840 5840 5840 5840 5840 5841 5841 5841 5841 5841 5842 5842 5843 5844
Wind_Speed
4 4 4 4 4 4 4 4 4 4 4 4 5 5 5 5 5 6 6 5 5 5 5 5 5 5 5 5 5 5 5 4 4 4 3 3 3 3 3 3 3 3 2
4 4 4 5 4 4 3 3 4 4 4 4 4 4 4 4 5 5 5 5 5 4 4 4 4 4 4 5 5 5 5 5 4 4 4 3 3 4 4 3 3 2 2
4 4 4 4 4 3 3 3 3 4 3 4 3 3 4 4 4 5 5 5 4 4 4 4 4 4 4 5 5 5 5 5 5 5 5 4 3 4 4 4 3 2 2
5 4 4 4 4 3 3 2 2 2 2 2 2 3 3 3 3 3 3 4 3 3 3 4 4 3 4 5 5 5 5 6 5 6 5 4 4 4 4 3 3 3 2
6 5 5 4 4 3 3 2 2 1 0 1 1 2 2 3 3 3 3 3 3 3 4 4 4 4 4 5 5 5 5 6 5 5 5 5 5 5 4 3 3 3 3
7 6 6 5 4 3 3 2 2 1 1 0 0 1 1 2 2 3 3 4 3 3 4 4 4 4 3 4 5 5 5 5 5 5 5 6 6 5 5 4 4 4 4
7 7 6 6 5 4 3 3 2 1 1 1 1 1 1 1 2 3 3 3 4 3 4 4 4 4 4 4 6 6 6 6 5 6 6 5 5 5 5 4 5 5 5
7 6 7 6 5 4 4 4 3 2 1 2 2 2 2 2 3 2 2 3 3 4 4 5 5 5 5 5 5 6 7 7 6 6 6 5 5 5 5 4 5 5 5
7 7 7 6 6 4 4 4 3 3 2 3 3 3 4 4 4 4 3 3 4 4 4 5 4 4 4 5 5 5 6 7 6 6 6 6 6 5 5 5 5 5 5
7 7 7 7 7 6 4 4 4 4 4 4 4 5 5 5 5 5 5 5 5 5 5 6 5 4 4 4 5 5 6 6 6 7 7 6 6 6 5 5 6 5 5
7 8 8 8 7 6 5 4 5 5 5 6 6 6 6 6 6 5 6 5 5 5 6 6 5 4 4 4 4 5 6 7 7 7 7 6 6 7 6 7 6 6 6
8 9 8 9 8 7 7 5 5 6 7 6 6 7 7 7 6 6 6 6 6 6 6 6 5 5 5 5 5 5 6 7 7 7 7 6 7 7 7 7 6 6 7
9 9 9 9 9 9 8 7 7 8 7 6 6 6 6 6 6 6 6 5 6 6 6 6 6 6 6 7 7 7 7 7 7 7 7 7 7 7 7 7 7 7 7
10 10 10 9 10 10 9 9 8 8 7 7 7 7 7 7 7 7 7 6 6 6 6 7 7 7 7 8 8 8 8 8 8 8 8 8 9 8 8 8 8 8 9
10 10 10 10 11 11 11 10 10 10 9 8 7 8 7 8 8 7 8 7 7 7 7 7 7 7 7 8 9 9 8 8 9 9 9 8 9 9 9 9 8 8 9
10 11 11 11 12 12 12 11 10 10 10 9 9 8 8 8 8 8 8 7 7 8 8 8 8 8 9 9 9 9 9 9 9 10 10 10 10 9 9 10 10 10 10
11 11 11 12 13 13 12 12 11 10 10 10 9 9 8 8 8 9 9 9 8 8 8 8 9 9 9 9 9 10 10 10 11 11 11 11 11 10 10 10 10 11 11
12 11 11 12 13 13 13 12 12 11 10 10 10 9 9 9 9 9 10 10 9 9 10 10 9 9 9 9 10 10 11 11 11 12 12 12 12 11 12 12 12 12 12
12 12 12 13 13 13 13 13 12 12 11 11 11 10 10 10 10 9 10 9 9 10 10 10 10 10 10 10 10 11 11 12 12 12 13 13 13 13 13 13 13 13 13
12 13 13 13 13 13 13 13 12 11 11 11 11 11 10 10 10 10 10 10 10 10 11 11 11 11 11 11 11 11 12 12 12 12 13 14 14 14 15 15 14 14 15
12 12 13 13 13 13 13 13 12 12 11 12 12 12 11 11 10 10 10 10 11 11 11 11 12 13 13 13 13 13 13 13 13 13 14 15 16 16 15 16 16 15 15
12 12 13 13 14 13 13 13 13 13 13 12 13 13 12 11 11 11 11 11 11 11 12 12 13 13 14 14 14 14 14 14 14 14 14 15 16 16 16 16 16 16 15
12 12 13 13 14 14 14 13 13 13 13 13 13 12 12 12 12 12 12 12 12 12 12 12 13 13 13 14 14 14 14 15 15 15 16 15 16 17 17 17 17 17 17
12 12 12 13 13 13 14 13 13 14 14 14 14 13 12 12 12 13 13 13 13 13 13 13 14 14 14 14 15 16 16 16 16 16 17 16 16 17 18 18 18 18 18
13 13 13 13 14 14 14 14 14 14 14 14 14 14 14 13 13 14 13 13 13 13 13 14 14 14 14 15 15 16 16 16 17 18 18 18 18 18 18 19 19 18 18
14 14 14 14 14 15 15 15 15 14 15 15 15 15 14 14 14 14 13 13 13 13 14 14 14 15 15 14 15 15 16 16 17 18 18 18 19 18 18 19 19 19 19
Wind_Direction
62 67 72 80 83 83 94 100 105 109 117 129 136 140 144 152 167 178 184 189 182 175 179 183 178 169 172 175 178 181 179 185 189 184 180 190 196 193 197 206 210 208 207
66 66 59 65 76 82 85 90 98 111 113 119 133 136 147 155 166 175 174 174 178 180 185 184 187 181 181 186 192 197 197 194 192 199 195 193 200 200 195 195 205 217 229
57 58 49 55 66 68 68 77 93 109 111 119 132 143 151 157 166 173 174 170 174 184 192 189 192 188 190 197 206 212 215 210 205 207 202 202 206 205 208 208 213 221 235
53 56 51 51 55 57 58 64 78 96 107 124 138 160 169 173 180 177 182 180 184 190 192 191 193 193 196 201 207 214 217 221 220 219 210 214 213 215 220 208 207 210 229
48 49 46 45 45 40 34 34 37 44 105 137 149 170 192 197 196 204 210 206 200 204 201 202 206 203 202 203 205 213 219 225 222 217 220 219 222 220 224 212 205 210 226
43 42 42 40 40 34 23 17 19 14 43 300 226 199 201 211 216 220 223 222 220 221 222 213 210 206 210 214 212 217 222 223 224 225 221 221 228 227 227 217 221 223 224
45 42 39 40 39 34 26 19 12 1 352 324 300 293 273 277 268 247 229 226 219 225 234 224 223 221 221 228 224 225 228 220 222 222 222 227 231 227 224 228 231 233 233
40 41 38 34 32 27 23 25 23 10 352 340 327 306 286 287 282 274 250 245 235 234 232 236 234 226 228 229 236 228 227 223 222 229 226 229 232 229 226 234 242 245 242
33 37 34 27 24 21 17 12 9 352 335 331 325 315 304 298 297 294 285 267 249 246 240 242 241 238 237 234 239 233 231 230 229 230 231 234 239 239 241 241 241 242 243
24 29 27 22 18 17 7 359 353 347 335 321 311 308 304 303 301 296 293 281 262 255 249 247 256 257 253 252 241 237 240 235 227 226 229 235 242 245 246 247 243 241 242
24 24 22 19 15 13 7 353 346 338 326 315 307 303 300 297 296 290 290 284 266 261 257 251 258 258 254 246 237 234 236 236 232 231 233 237 244 247 247 247 248 256 254
26 19 14 10 6 5 359 347 338 331 326 317 311 303 298 297 295 292 290 283 269 263 260 252 252 253 254 244 247 246 241 239 234 236 239 240 247 250 245 248 255 260 259
15 10 7 7 6 1 353 347 336 330 326 316 310 311 309 305 301 302 298 288 268 265 267 259 253 252 248 249 256 257 253 245 242 247 251 251 252 250 252 255 259 261 258
5 4 1 2 2 357 352 347 339 330 325 320 313 316 316 308 302 299 298 289 281 276 269 267 262 257 250 252 257 257 253 249 249 250 254 257 255 252 256 258 260 260 260
358 358 358 359 357 354 351 345 339 334 331 325 319 314 309 306 305 301 297 290 281 280 275 271 268 260 255 257 258 256 254 252 247 250 253 257 260 259 259 259 259 264 267
352 352 353 352 351 348 347 343 338 335 337 339 333 321 310 305 307 306 305 295 282 278 278 278 274 268 260 259 261 257 255 256 254 252 253 257 258 260 263 263 263 267 271
351 351 351 351 349 346 345 343 339 338 338 338 333 324 319 311 306 308 305 297 290 285 284 282 280 278 271 265 263 262 257 258 260 257 255 257 260 261 263 265 265 266 272
348 348 347 347 347 343 342 341 338 337 335 335 331 322 318 314 309 306 304 298 292 289 286 285 284 281 278 272 269 265 262 261 260 260 257 260 261 262 263 264 266 268 270
344 345 343 341 342 342 341 340 338 336 331 330 329 320 315 314 310 308 309 306 297 289 289 289 285 284 280 274 270 267 264 264 266 264 263 264 264 265 265 265 267 269 270
339 339 339 340 341 343 340 340 339 337 332 328 330 329 323 318 313 309 307 309 307 299 293 289 287 285 282 276 272 270 267 267 266 264 264 263 264 267 268 267 266 267 270
336 338 339 340 340 341 342 342 341 337 332 329 330 329 326 318 314 312 309 307 305 303 298 292 285 284 283 279 275 271 270 270 268 266 267 266 266 267 267 265 265 267 269
334 334 336 337 339 339 339 338 338 336 333 331 330 327 323 320 316 311 309 308 304 299 297 297 295 289 287 283 278 275 274 274 271 269 269 269 268 267 266 265 264 265 266
336 334 335 336 336 337 337 336 335 333 331 332 333 331 327 320 316 312 308 305 302 298 296 296 295 289 288 286 281 277 274 272 271 270 269 272 274 270 266 267 267 268 268
337 337 338 337 337 337 337 336 335 334 333 334 332 330 328 324 319 314 310 307 304 302 298 294 293 290 288 287 282 279 278 274 272 271 273 275 275 271 269 269 269 269 269
334 333 335 335 335 335 334 332 332 332 332 331 330 329 326 323 320 317 313 311 305 301 300 297 296 296 292 288 283 279 278 276 274 272 273 273 273 273 269 268 269 269 268
330 329 330 331 331 331 331 329 329 330 329 328 329 329 326 324 320 317 317 314 311 305 300 299 301 301 299 294 288 282 279 274 272 273 271 272 274 274 272 270 269 269 268